Location: Vancouver
(49.2500°N, 123.1330°W)
Time: 19:32:09
(UTC-07:00)

ISS - Visible Passes

Search period start: 23 July 2014 00:00
Search period end: 02 August 2014 00:00
Orbit: 411 x 419 km, 51.6° (Epoch: 23 July)

Date Brightness Start Highest point End Pass type
(mag) Time Alt. Az. Time Alt. Az. Time Alt. Az.
23 Jul -0.9 02:21:30 15° ESE 02:21:30 15° ESE 02:22:34 10° E visible
23 Jul -3.3 03:54:21 20° WSW 03:56:31 77° SSE 03:59:53 10° ENE visible
24 Jul -3.1 03:07:13 47° S 03:07:45 54° SSE 03:11:03 10° ENE visible
24 Jul -2.7 04:41:09 10° W 04:44:30 59° N 04:47:50 10° ENE visible
25 Jul -1.9 02:20:03 29° ESE 02:20:03 29° ESE 02:22:09 10° E visible
25 Jul -3.0 03:52:55 15° W 03:55:38 69° NNW 03:59:00 10° ENE visible
26 Jul -0.6 01:32:52 12° E 01:32:52 12° E 01:33:09 10° E visible
26 Jul -3.3 03:05:44 41° WSW 03:06:47 85° NNW 03:10:10 10° ENE visible
26 Jul -2.5 04:40:23 10° WNW 04:43:42 54° N 04:47:02 10° E visible
27 Jul -2.9 02:18:32 56° E 02:18:32 56° E 02:21:20 10° ENE visible
27 Jul -2.6 03:51:30 10° W 03:54:49 55° N 03:58:08 10° ENE visible
28 Jul -1.1 01:31:20 19° E 01:31:20 19° E 01:32:29 10° ENE visible
28 Jul -2.8 03:04:11 25° W 03:05:56 60° N 03:09:17 10° ENE visible
28 Jul -2.8 04:39:32 10° WNW 04:42:54 64° N 04:46:15 10° E visible
29 Jul -3.1 02:16:59 71° NNW 02:17:04 71° NNW 02:20:26 10° ENE visible
29 Jul -2.6 03:50:41 10° WNW 03:54:01 57° N 03:57:21 10° E visible
30 Jul -1.7 01:29:48 29° ENE 01:29:48 29° ENE 01:31:36 10° ENE visible
30 Jul -2.6 03:02:40 17° WNW 03:05:07 54° N 03:08:26 10° E visible
30 Jul -3.3 04:38:37 10° WNW 04:42:00 85° SSW 04:45:22 10° ESE visible
31 Jul -0.4 00:42:41 11° ENE 00:42:41 11° ENE 00:42:45 10° ENE visible
31 Jul -2.6 02:15:32 45° NW 02:16:13 56° N 02:19:33 10° ENE visible
31 Jul -3.1 03:49:47 10° WNW 03:53:10 75° NNE 03:56:32 10° ESE visible
01 Aug -1.9 01:28:32 35° ENE 01:28:32 35° ENE 01:30:41 10° ENE visible
01 Aug -2.8 03:01:25 13° WNW 03:04:17 63° N 03:07:38 10° E visible
01 Aug -3.0 04:37:44 10° WNW 04:40:59 46° SSW 04:44:13 10° SE visible
